DMSP 5D-2 F13 DEB, 40436

Orbit data source: Space-Track

DMSP 5D-2 F13 DEB, 40436 is space debris in SSO originally from a launch on Fri, 24 Mar 1995 UTC launched from the Air Force Western Test Range (AFWTR). Debris objects in space refer to the collection of defunct objects orbiting the Earth. Examples of debris include non-operational satellites, rocket bodies, and fragments generated from explosions, collisions, or faulty payload assembly.

Loading next visibility...
Identifier
40436, 1995-015AN
Orbit
SSO
Country
Flag of USUS
Related business
Manufacturer
Unknown
Mission
Spacecraft
Bus & Motor
Unknown
Mass
Unknown
Launch date (UTC)
1995-03-24 (31 years ago)
Launch vehicle
Unknown
Launch site
Air Force Western Test Range (AFWTR)
Object type
Payload
Rocket body
Debris
Shape & HBR
Unknown shape, 0.1 m
Radar Cross Section
Small (<0.1 m²)

Expand to show TLE details & history
Last TLE update: 16 hours ago

TLE from 16 hours ago
0 DMSP 5D-2 F13 DEB
1 40436U 95015AN  26071.19740598  .00000457  00000-0  45671-3 0  9998
2 40436  98.8670 157.1872 0228912  24.4460 336.7344 13.71577379550989
Epoch: 2026-03-12T04:44Z
TLE epoch observation values (Epoch: 2026-03-12T04:44:15.876Z)
Latitude
-0.00004°
Longitude
-83.72969°
Altitude
842.317 km
Speed
7.509 km/s
True Right ascension
10h 28m 44s
True Declination
0° 00' 00"
Sunlit
Object was in full shadow at epoch
Visualization orbit readout
Latitude
Unknown
Longitude
Unknown
Altitude
Unknown
Speed
Unknown
Apparent Right ascension
Unknown
Apparent Declination
Unknown
Sunlit
N/A
Visualization observer readout
Local Sidereal Time
01:17:45
Azimuth
Unknown
Elevation
Unknown
Doppler factor
Unknown
Orbital elements
Apogee altitude
1,159.834 km
Perigee altitude
822.451 km
Semi-major axis
7,369.279 km
Eccentricity
0.02289
Inclination
98.867°
RAAN
157.1872°
Arg. of periapsis
24.446°
True anomaly
335.6704°
Mean anomaly
336.7344°
Eccentric anomaly
336.20523°
Mean motion
3.43088 °/min
Orbital period
104.93 mins
BSTAR
0.00045671
Loading maneuver chart data...
Computing Atmospheric mass density...
Loading historical data...
Loading historical data...
Loading historical data...
Loading historical data...
Loading historical data...
Loading historical data...
Loading historical data...

Documentation

Showing up to 5 results
|